sat.trackr.live / text

‹ back to catalog

STARLINK-34441

NORAD 64430 · 2025-129U

PAYLOAD ACTIVE UNKNOWN

§ Identity

Operator
Country
US
Launch date
2025-06-17
Launch site
AFWTR
Launch vehicle
Mass (kg)
RCS (m²)

Purposes: comms

External: N2YO · Heavens-Above · Gunter

§ Orbital elements

Epoch: 2026-05-24T15:25:14.558304Z

Period
96.11 min
Inclination
70.0007°
Eccentricity
0.0003586
Mean motion
14.98336991 rev/d
Perigee alt
569.5 km
Apogee alt
574.5 km
Semi-major
6,950.2 km
B*
1.6776e-4
RAAN
242.9765°
Arg perigee
270.7028°
Mean anomaly
89.3720°
Rev number
5,266

§ Raw data

STARLINK-344411 64430U 25129U   26144.64252961  .00001910  00000+0  16776-3 0  99982 64430  70.0007 242.9765 0003586 270.7028  89.3720 14.98336991 52667

JSON: /api/v1/satellites/64430 · /tle

For live sub-satellite position, see the globe view (requires WebGL).

§ Visibility from observer

Set your observer location to see the next 7 days of passes ≥ 10°. The values pass through the URL so the page stays shareable.

No JS? Fill the form by hand. The geolocation button needs JavaScript.